Starlink 30313

operational
NORAD ID: 57676 Int'l Des: 2023-124 Owner: SPXS Country: US Constellation: starlink
LEOCIRCULAR

About Starlink 30313

Description loading...

Live Position

Loading 3D Globe...

Upcoming Passes

Altitude History

Altitude vs Time

uPlot chart will show altitude changes over time

Two-Line Element Set

1 57676U 23124P 25259.47931582 -.00001235 00000-0 -29581-4 0 9997
2 57676 53.1608 296.1783 0001366 82.9209 277.1948 15.30185324116893
Epoch: Sep 16, 2025 • Age: 37 hours

Current Status

Altitude 492.2 km
Velocity 7.62 km/s
Sub-Earth Point -47.03°S, 155.5°E
Launch Date Aug 22, 2023
Age 2 years
Type internet

Technical Details

Classification Payload
Mass 730.00 kg
Dry Mass 700.00 kg
Total Mass 730.00 kg
Length 0.30 m
Diameter 4.10 m
Span 29.00 m
Shape Box + pan
Manufacturer SPXS
Bus Type Starlink V2M
Phase Status In Orbit
Owner/State SPXS/US

Large Constellations

Loading constellations...